When you browse on this site, cookies collect data to enhance your experience and personalize the content and advertising you see.
Visit our Privacy Policy to learn more. By continuing to use the site, you agree to this use of cookies and data.
  • In Portugal
  • List of Countries
  • For 7 days
  • Water Temperature
  • Satellite Maps
  • Weather Map
  • Weather Widgets
  • user-avatar
    Login

    Hourly Weather Nikolske (Volodarskoe)

    Today, 19 February, Tuesday

    Time Temperature Precipitation Wind Pressure Humidity
    00:00 -2°C° 0 mm 3 mps 757 mmHg 68%
    01:00 -2°C° 0 mm 3 mps 758 mmHg 67%
    02:00 -2°C° 0 mm 2 mps 758 mmHg 66%
    03:00 -2°C° 0 mm 2 mps 758 mmHg 66%
    04:00 -2°C° 0 mm 2 mps 758 mmHg 66%
    05:00 -2°C° 0 mm 2 mps 759 mmHg 66%
    06:00 -2°C° 0 mm 2 mps 759 mmHg 65%
    07:00 -2°C° 0 mm 2 mps 759 mmHg 64%
    08:00 -2°C° 0 mm 2 mps 760 mmHg 63%
    09:00 -1°C° 0 mm 2 mps 760 mmHg 59%
    10:00 -1°C° 0 mm 2 mps 760 mmHg 55%
    11:00 +2°C° 0 mm 1 mps 761 mmHg 51%
    12:00 +2°C° 0 mm 1 mps 760 mmHg 50%
    13:00 +3°C° 0 mm 1 mps 760 mmHg 49%
    14:00 +3°C° 0 mm 1 mps 760 mmHg 47%
    15:00 +2°C° 0 mm 2 mps 760 mmHg 51%
    16:00 +1°C° 0 mm 2 mps 760 mmHg 55%
    17:00 -1°C° 0 mm 2 mps 760 mmHg 59%
    18:00 -1°C° 0 mm 2 mps 760 mmHg 62%
    19:00 -1°C° 0 mm 2 mps 760 mmHg 64%
    20:00 -2°C° 0 mm 2 mps 760 mmHg 67%
    21:00 -2°C° 0 mm 2 mps 759 mmHg 66%
    22:00 -2°C° 0 mm 2 mps 759 mmHg 65%
    23:00 -2°C° 0 mm 2 mps 759 mmHg 64%

    Tomorrow, 20 February, Wednesday

    Time Temperature Precipitation Wind Pressure Humidity
    00:00 -2°C° 0 mm 2 mps 759 mmHg 65%
    01:00 -2°C° 0 mm 2 mps 758 mmHg 67%
    02:00 -2°C° 0 mm 2 mps 758 mmHg 68%
    03:00 -2°C° 0 mm 2 mps 757 mmHg 70%
    04:00 -2°C° 0 mm 2 mps 757 mmHg 71%
    05:00 -2°C° 0 mm 2 mps 756 mmHg 73%
    06:00 -1°C° 0 mm 3 mps 756 mmHg 71%
    07:00 -1°C° 0 mm 3 mps 756 mmHg 70%
    08:00 -1°C° 0 mm 3 mps 756 mmHg 69%
    09:00 -1°C° 0 mm 4 mps 756 mmHg 64%
    10:00 0°C° 0 mm 4 mps 755 mmHg 58%
    11:00 +1°C° 0 mm 4 mps 755 mmHg 53%
    12:00 +3°C° 0 mm 4 mps 755 mmHg 54%
    13:00 +2°C° 0 mm 5 mps 754 mmHg 55%
    14:00 +2°C° 0 mm 5 mps 754 mmHg 55%
    15:00 +1°C° 0 mm 4 mps 753 mmHg 59%
    16:00 +1°C° 0 mm 4 mps 753 mmHg 64%
    17:00 0°C° 0 mm 4 mps 753 mmHg 68%
    18:00 +1°C° 0 mm 3 mps 753 mmHg 71%
    19:00 0°C° 0 mm 3 mps 753 mmHg 73%
    20:00 0°C° 0 mm 3 mps 753 mmHg 76%
    21:00 0°C° 0 mm 3 mps 752 mmHg 78%
    22:00 0°C° 0 mm 4 mps 752 mmHg 79%
    23:00 0°C° 0 mm 4 mps 752 mmHg 81%

    Day after tomorrow, 21 February, Thursday

    Time Temperature Precipitation Wind Pressure Humidity
    00:00 0°C° 0 mm 4 mps 752 mmHg 83%
    01:00 +1°C° 0 mm 4 mps 751 mmHg 85%
    02:00 +1°C° 0 mm 4 mps 751 mmHg 87%
    03:00 +1°C° 0 mm 4 mps 751 mmHg 90%
    04:00 +1°C° 0 mm 4 mps 751 mmHg 93%
    05:00 +1°C° 0 mm 4 mps 751 mmHg 96%
    06:00 +1°C° 0 mm 4 mps 751 mmHg 94%
    07:00 +1°C° 0 mm 5 mps 751 mmHg 93%
    08:00 +2°C° 0 mm 5 mps 751 mmHg 92%
    09:00 +3°C° 0 mm 6 mps 751 mmHg 79%
    10:00 +4°C° 0 mm 7 mps 750 mmHg 67%
    11:00 +5°C° 0 mm 7 mps 750 mmHg 55%
    12:00 +4°C° 0 mm 8 mps 750 mmHg 56%
    13:00 +4°C° 0 mm 8 mps 750 mmHg 58%
    14:00 +4°C° 0 mm 8 mps 750 mmHg 59%
    15:00 +2°C° 0 mm 8 mps 750 mmHg 58%
    16:00 +1°C° 0 mm 8 mps 750 mmHg 56%
    17:00 0°C° 0 mm 8 mps 751 mmHg 55%
    18:00 0°C° 0 mm 7 mps 751 mmHg 55%
    19:00 -1°C° 0 mm 7 mps 751 mmHg 56%
    20:00 -1°C° 0 mm 6 mps 752 mmHg 57%
    21:00 -2°C° 0 mm 6 mps 752 mmHg 58%
    22:00 -1°C° 0 mm 5 mps 752 mmHg 58%
    23:00 -1°C° 0 mm 4 mps 752 mmHg 59%

    22 February, Friday

    Time Temperature Precipitation Wind Pressure Humidity
    00:00 -2°C° 0 mm 4 mps 752 mmHg 61%
    01:00 -2°C° 0 mm 4 mps 752 mmHg 63%
    02:00 -2°C° 0 mm 3 mps 752 mmHg 65%
    03:00 -2°C° 0 mm 3 mps 751 mmHg 66%
    04:00 -1°C° 0 mm 3 mps 751 mmHg 66%
    05:00 -1°C° 0 mm 3 mps 751 mmHg 67%
    06:00 -1°C° 0 mm 3 mps 751 mmHg 66%
    07:00 -2°C° 0 mm 4 mps 752 mmHg 65%
    08:00 -2°C° 0 mm 4 mps 752 mmHg 64%
    09:00 -2°C° 0 mm 4 mps 752 mmHg 60%
    10:00 -1°C° 0 mm 4 mps 752 mmHg 55%
    11:00 0°C° 0 mm 3 mps 752 mmHg 51%
    12:00 0°C° 0 mm 3 mps 751 mmHg 50%
    13:00 0°C° 0 mm 3 mps 751 mmHg 50%
    14:00 +1°C° 0 mm 2 mps 751 mmHg 49%
    15:00 0°C° 0.1 mm 3 mps 751 mmHg 54%
    16:00 -1°C° 0.1 mm 3 mps 751 mmHg 58%
    17:00 -1°C° 0.1 mm 3 mps 751 mmHg 63%
    18:00 -3°C° 0.2 mm 4 mps 752 mmHg 68%
    19:00 -3°C° 0.2 mm 4 mps 752 mmHg 73%
    20:00 -5°C° 0.2 mm 5 mps 753 mmHg 79%
    21:00 -6°C° 0.4 mm 6 mps 753 mmHg 79%
    22:00 -8°C° 0.4 mm 7 mps 753 mmHg 79%
    23:00 -10°C° 0.4 mm 9 mps 754 mmHg 80%

    23 February, Saturday

    Time Temperature Precipitation Wind Pressure Humidity
    00:00 -10°C° 0.3 mm 8 mps 754 mmHg 78%
    01:00 -11°C° 0.3 mm 8 mps 754 mmHg 77%
    02:00 -12°C° 0.3 mm 8 mps 755 mmHg 75%
    03:00 -12°C° 0.1 mm 8 mps 755 mmHg 71%
    04:00 -12°C° 0.1 mm 8 mps 755 mmHg 68%
    05:00 -12°C° 0.1 mm 9 mps 756 mmHg 64%
    06:00 -12°C° 0 mm 9 mps 756 mmHg 63%
    07:00 -12°C° 0 mm 9 mps 756 mmHg 62%
    08:00 -12°C° 0 mm 9 mps 757 mmHg 61%
    09:00 -12°C° 0 mm 8 mps 757 mmHg 60%
    10:00 -11°C° 0 mm 8 mps 757 mmHg 59%
    11:00 -11°C° 0 mm 7 mps 758 mmHg 58%
    12:00 -9°C° 0 mm 7 mps 758 mmHg 57%
    13:00 -9°C° 0 mm 7 mps 758 mmHg 55%
    14:00 -9°C° 0 mm 7 mps 758 mmHg 53%
    15:00 -9°C° 0 mm 6 mps 758 mmHg 54%
    16:00 -9°C° 0 mm 6 mps 758 mmHg 56%
    17:00 -10°C° 0 mm 5 mps 758 mmHg 57%
    18:00 -10°C° 0 mm 5 mps 759 mmHg 59%
    19:00 -10°C° 0 mm 6 mps 759 mmHg 61%
    20:00 -11°C° 0 mm 6 mps 759 mmHg 62%
    21:00 -11°C° 0 mm 6 mps 759 mmHg 63%
    22:00 -11°C° 0 mm 5 mps 759 mmHg 64%
    23:00 -12°C° 0 mm 5 mps 759 mmHg 65%

    24 February, Sunday

    Time Temperature Precipitation Wind Pressure Humidity
    00:00 -12°C° 0 mm 5 mps 759 mmHg 66%
    01:00 -12°C° 0 mm 5 mps 759 mmHg 67%
    02:00 -13°C° 0 mm 5 mps 760 mmHg 68%
    03:00 -13°C° 0 mm 5 mps 760 mmHg 69%
    04:00 -13°C° 0 mm 5 mps 760 mmHg 69%
    05:00 -13°C° 0 mm 5 mps 760 mmHg 70%
    06:00 -13°C° 0 mm 5 mps 760 mmHg 69%
    07:00 -13°C° 0 mm 5 mps 760 mmHg 68%
    08:00 -14°C° 0 mm 6 mps 760 mmHg 67%
    09:00 -12°C° 0 mm 5 mps 760 mmHg 64%
    10:00 -11°C° 0 mm 5 mps 760 mmHg 61%
    11:00 -10°C° 0 mm 5 mps 760 mmHg 58%
    12:00 -10°C° 0 mm 5 mps 760 mmHg 57%
    13:00 -8°C° 0 mm 5 mps 760 mmHg 55%
    14:00 -7°C° 0 mm 4 mps 760 mmHg 54%
    15:00 -8°C° 0 mm 4 mps 760 mmHg 57%
    16:00 -8°C° 0 mm 4 mps 760 mmHg 60%
    17:00 -8°C° 0 mm 4 mps 760 mmHg 63%
    18:00 -8°C° 0 mm 4 mps 760 mmHg 66%
    19:00 -8°C° 0 mm 4 mps 760 mmHg 68%
    20:00 -8°C° 0 mm 4 mps 760 mmHg 71%
    21:00 -8°C° 0 mm 4 mps 760 mmHg 72%
    22:00 -8°C° 0 mm 4 mps 759 mmHg 74%
    23:00 -8°C° 0 mm 4 mps 759 mmHg 75%
    Show more